Huntsville Madison, AL

8:44 AM CDT on March 24, 2017 (GMT -0500)
Huntsville Madison

Weather History for KMDQ - October, 2012

Change the Weather History Date:

Tuesday, October 30, 2012

  Actual Average (KHSV) Record (KHSV)
Temperature  
Mean Temperature 44 °F -  
Max Temperature 53 °F 70 °F 87 °F (2016)
Min Temperature 35 °F 48 °F 23 °F (1952)
Degree Days  
Heating Degree Days 21    
Moisture  
Dew Point 28 °F    
Average Humidity 55    
Maximum Humidity 87    
Minimum Humidity 30    
Precipitation  
Precipitation 0.00 in - - ()
Sea Level Pressure  
Sea Level Pressure 29.86 in    
Wind  
Wind Speed 12 mph (WNW)    
Max Wind Speed 21 mph    
Max Gust Speed 30 mph    
Visibility 10 miles    
Events      
Averages and records for this station are not official NWS values.
T = Trace of Precipitation, MM = Missing Value Source: NWS Daily Summary

Daily Weather History Graph

Daily Weather History Graph

Search for Another Location

Airport or City:

Trip Planner

Search our weather history database for the weather conditions in past years. The results will help you decide how hot, cold, wet, or windy it might be!

Date:

Astronomy

Oct. 30, 2012 Rise Set
Actual Time 7:05 AM CDT 5:53 PM CDT
Civil Twilight 6:39 AM CDT 6:19 PM CDT
Nautical Twilight 6:09 AM CDT 6:49 PM CDT
Astronomical Twilight 5:40 AM CDT 7:18 PM CDT
Moon 6:26 PM CDT (10/30) 7:48 AM CDT (10/30)
Length of Visible Light 11h 40m
Length of Day
10h 47m
Full, 99% of the Moon is Illuminated
Oct 30
Full
Nov 6
Last Quarter
Nov 13
New
Nov 20
First Quarter
Nov 28
Full

Hourly Weather History & Observations

Time (CDT) Temp. Windchill Dew Point Humidity Pressure Visibility Wind Dir Wind Speed Gust Speed Precip Events Conditions
12:15 AM 44.6 °F 38.1 °F 30.2 °F 57% 29.91 in 10.0 mi NW 13.8 mph 21.9 mph N/A   Clear
12:35 AM 42.8 °F 35.8 °F 30.2 °F 61% 29.91 in 10.0 mi NW 13.8 mph - N/A   Clear
12:55 AM 42.8 °F 36.2 °F 30.2 °F 61% 29.90 in 10.0 mi NW 12.7 mph 20.7 mph N/A   Clear
1:15 AM 42.8 °F 36.2 °F 30.2 °F 61% 29.89 in 10.0 mi NW 12.7 mph 19.6 mph N/A   Clear
1:35 AM 42.8 °F 35.8 °F 30.2 °F 61% 29.88 in 10.0 mi NW 13.8 mph - N/A   Clear
1:55 AM 42.8 °F 36.2 °F 30.2 °F 61% 29.88 in 10.0 mi NW 12.7 mph 16.1 mph N/A   Clear
2:15 AM 41.0 °F 34.7 °F 30.2 °F 65% 29.87 in 10.0 mi NW 10.4 mph - N/A   Clear
2:35 AM 41.0 °F 34.7 °F 30.2 °F 65% 29.87 in 10.0 mi NW 10.4 mph - N/A   Clear
2:55 AM 41.0 °F 34.3 °F 30.2 °F 65% 29.86 in 10.0 mi NW 11.5 mph - N/A   Clear
3:35 AM 41.0 °F 33.9 °F 30.2 °F 65% 29.85 in 10.0 mi NW 12.7 mph - N/A   Clear
3:55 AM 41.0 °F 34.7 °F 30.2 °F 65% 29.85 in 10.0 mi NW 10.4 mph - N/A   Clear
4:15 AM 41.0 °F 33.5 °F 28.4 °F 61% 29.85 in 10.0 mi NW 13.8 mph 19.6 mph N/A   Clear
4:35 AM 41.0 °F 33.5 °F 28.4 °F 61% 29.85 in 10.0 mi NW 13.8 mph 17.3 mph N/A   Clear
4:55 AM 41.0 °F 33.9 °F 28.4 °F 61% 29.85 in 10.0 mi NW 12.7 mph 20.7 mph N/A   Clear
5:15 AM 42.8 °F 36.2 °F 28.4 °F 57% 29.86 in 10.0 mi NW 12.7 mph 21.9 mph N/A   Clear
5:35 AM 41.0 °F 33.9 °F 28.4 °F 61% 29.86 in 10.0 mi NW 12.7 mph 18.4 mph N/A   Clear
5:55 AM 41.0 °F 34.7 °F 28.4 °F 61% 29.86 in 10.0 mi NW 10.4 mph - N/A   Clear
6:15 AM 41.0 °F 34.7 °F 28.4 °F 61% 29.86 in 10.0 mi NW 10.4 mph 18.4 mph N/A   Clear
6:35 AM 41.0 °F 34.3 °F 28.4 °F 61% 29.86 in 10.0 mi NW 11.5 mph - N/A   Clear
6:55 AM 41.0 °F 35.2 °F 28.4 °F 61% 29.86 in 10.0 mi NW 9.2 mph - N/A   Clear
7:15 AM 41.0 °F 35.8 °F 28.4 °F 61% 29.86 in 10.0 mi WNW 8.1 mph - N/A   Clear
7:35 AM 37.4 °F 31.4 °F 30.2 °F 75% 29.86 in 10.0 mi West 8.1 mph - N/A   Clear
7:55 AM 39.2 °F 35.0 °F 30.2 °F 70% 29.87 in 10.0 mi West 5.8 mph - N/A   Clear
8:15 AM 39.2 °F 33.6 °F 30.2 °F 70% 29.87 in 10.0 mi West 8.1 mph - N/A   Clear
8:35 AM 41.0 °F 36.4 °F 30.2 °F 65% 29.87 in 10.0 mi West 6.9 mph - N/A   Clear
8:55 AM 41.0 °F 35.8 °F 30.2 °F 65% 29.88 in 10.0 mi WNW 8.1 mph - N/A   Clear
9:15 AM 42.8 °F 38.0 °F 30.2 °F 61% 29.87 in 10.0 mi WNW 8.1 mph - N/A   Clear
9:35 AM 44.6 °F 37.8 °F 28.4 °F 53% 29.87 in 10.0 mi West 15.0 mph - N/A   Clear
9:55 AM 46.4 °F 40.4 °F 28.4 °F 50% 29.86 in 10.0 mi West 13.8 mph - N/A   Clear
10:35 AM 46.4 °F 40.1 °F 26.6 °F 46% 29.86 in 10.0 mi NW 15.0 mph 21.9 mph N/A   Clear
10:55 AM 50.0 °F - 26.6 °F 40% 29.86 in 10.0 mi WNW 18.4 mph 24.2 mph N/A   Clear
11:15 AM 50.0 °F - 26.6 °F 40% 29.86 in 10.0 mi WNW 20.7 mph 25.3 mph N/A   Clear
11:55 AM 51.8 °F - 26.6 °F 38% 29.85 in 10.0 mi WNW 16.1 mph 21.9 mph N/A   Clear
12:15 PM 51.8 °F - 24.8 °F 35% 29.84 in 10.0 mi WNW 15.0 mph 21.9 mph N/A   Clear
12:35 PM 51.8 °F - 24.8 °F 35% 29.84 in 10.0 mi WNW 17.3 mph 27.6 mph N/A   Clear
12:55 PM 51.8 °F - 24.8 °F 35% 29.83 in 10.0 mi WNW 16.1 mph 25.3 mph N/A   Clear
1:15 PM 51.8 °F - 24.8 °F 35% 29.83 in 10.0 mi WNW 16.1 mph 25.3 mph N/A   Clear
1:35 PM 53.6 °F - 24.8 °F 33% 29.82 in 10.0 mi NW 17.3 mph 26.5 mph N/A   Clear
1:55 PM 53.6 °F - 23.0 °F 30% 29.82 in 10.0 mi NW 18.4 mph 29.9 mph N/A   Clear
2:35 PM 53.6 °F - 23.0 °F 30% 29.81 in 10.0 mi NW 19.6 mph 26.5 mph N/A   Clear
2:55 PM 53.6 °F - 23.0 °F 30% 29.81 in 10.0 mi WNW 20.7 mph 26.5 mph N/A   Clear
3:15 PM 53.6 °F - 24.8 °F 33% 29.81 in 10.0 mi NW 17.3 mph 24.2 mph N/A   Clear
3:35 PM 53.6 °F - 24.8 °F 33% 29.81 in 10.0 mi WNW 13.8 mph 23.0 mph N/A   Clear
3:55 PM 53.6 °F - 24.8 °F 33% 29.81 in 10.0 mi NW 16.1 mph 23.0 mph N/A   Clear
4:15 PM 53.6 °F - 24.8 °F 33% 29.81 in 10.0 mi WNW 13.8 mph 24.2 mph N/A   Clear
4:35 PM 53.6 °F - 24.8 °F 33% 29.80 in 10.0 mi WNW 13.8 mph - N/A   Clear
4:55 PM 53.6 °F - 26.6 °F 35% 29.80 in 10.0 mi WNW 9.2 mph 18.4 mph N/A   Clear
5:15 PM 53.6 °F - 26.6 °F 35% 29.81 in 10.0 mi WNW 11.5 mph 19.6 mph N/A   Clear
5:35 PM 51.8 °F - 26.6 °F 38% 29.82 in 10.0 mi WNW 11.5 mph 17.3 mph N/A   Clear
6:15 PM 50.0 °F - 26.6 °F 40% 29.84 in 10.0 mi WNW 6.9 mph - N/A   Clear
6:35 PM 50.0 °F - 26.6 °F 40% 29.84 in 10.0 mi WNW 6.9 mph - N/A   Clear
7:15 PM 44.6 °F 42.2 °F 28.4 °F 53% 29.86 in 10.0 mi West 4.6 mph - N/A   Clear
7:35 PM 44.6 °F 41.4 °F 28.4 °F 53% 29.86 in 10.0 mi West 5.8 mph - N/A   Clear
7:55 PM 46.4 °F 44.3 °F 28.4 °F 50% 29.86 in 10.0 mi West 4.6 mph - N/A   Clear
8:15 PM 44.6 °F 43.1 °F 30.2 °F 57% 29.87 in 10.0 mi West 3.5 mph - N/A   Clear
8:35 PM 37.4 °F 34.9 °F 32.0 °F 81% 29.87 in 10.0 mi WNW 3.5 mph - N/A   Clear
8:55 PM 37.4 °F - 32.0 °F 81% 29.88 in 10.0 mi Calm Calm - N/A   Clear
9:15 PM 35.6 °F 31.7 °F 32.0 °F 87% 29.88 in 10.0 mi West 4.6 mph - N/A   Clear
9:35 PM 39.2 °F 37.0 °F 32.0 °F 75% 29.88 in 10.0 mi West 3.5 mph - N/A   Clear
9:55 PM 41.0 °F 39.0 °F 30.2 °F 65% 29.89 in 10.0 mi West 3.5 mph - N/A   Clear
10:15 PM 41.0 °F - 30.2 °F 65% 29.88 in 10.0 mi Calm Calm - N/A   Clear
10:35 PM 37.4 °F 34.9 °F 32.0 °F 81% 29.88 in 10.0 mi NW 3.5 mph - N/A   Clear
10:55 PM 35.6 °F 31.7 °F 32.0 °F 87% 29.88 in 10.0 mi West 4.6 mph - N/A   Clear
11:15 PM 41.0 °F 39.0 °F 30.2 °F 65% 29.88 in 10.0 mi West 3.5 mph - N/A   Clear
11:35 PM 41.0 °F 39.0 °F 30.2 °F 65% 29.88 in 10.0 mi West 3.5 mph - N/A   Clear
11:55 PM 41.0 °F 38.0 °F 30.2 °F 65% 29.88 in 10.0 mi West 4.6 mph - N/A   Clear